Location: Burera
(21.3780°N, 81.9534°E)
Time: 00:28:24
(UTC+00:00)

Cosmos 407 Rocket - Pass Details

Date: 13 August 2020
Orbit: 744 x 786 km, 74.0° (Epoch: 22 September)

Event Time Altitude Azimuth Distance (km) Brightness Sun altitude
Rises 13:42:01 0° 190° (S) 3,260 6.7 -9.3°
Reaches altitude 10° 13:44:24 10° 189° (S) 2,333 5.9 -9.8°
Maximum altitude 13:49:43 80° 103° (ESE) 796 3.5 -11.0°
Drops below altitude 10° 13:55:00 10° 17° (NNE) 2,325 6.1 -12.1°
Sets 13:57:23 0° 16° (NNE) 3,249 6.8 -12.7°
